Terminal Aerodrome Forecast
Issued by NWS

Home | Current Version | Previous Version | Text Only | Print | Product List | Glossary On
Versions: 1 2 3 4 5 6 7 8 9 10 11 12
695
FTUS44 KSJT 240520
TAFBBD
TAF
KBBD 240520Z 2406/2506 14010KT P6SM SCT150
     FM241200 36005KT P6SM BKN025
     FM241800 35007KT P6SM BKN050
      AMD NOT SKED=

USA.gov is the U.S. government's official web portal to all federal, state and local government web resources and services.